WA2GUG Weather Reports


time (UTC)temp
C
wind
direction
speed
KPH
gust
KPH
rain 1hr
cm
rain 24hr
cm
rain mn
cm
humidity
%
barometer
mb
20260506213923 -17 223 0.0 3.2 0.00 0.00 0.00 99 1004.0
20260506213423 17 227 0.0 1.6 0.00 0.00 0.00 99 1003.2
20260506212923 -17 190 0.0 0.0 0.00 0.00 0.00 99 1003.2
20260506212423 17 207 0.0 0.0 0.00 0.00 0.00 99 1003.2
20260506211923 17 218 0.0 3.2 0.00 0.00 0.00 99 1004.0
20260506211423 17 235 0.0 3.2 0.00 0.00 0.00 99 1004.0
20260506210923 17 213 0.0 3.2 0.00 0.00 0.00 99 1003.2
20260506210423 17 225 0.0 0.0 0.00 0.00 0.00 99 1003.2
20260506205923 17 227 0.0 0.0 0.00 0.00 0.00 99 1003.1
20260506205423 17 231 0.0 0.0 0.00 0.00 0.00 99 1003.0
20260506204923 17 231 0.0 1.6 0.00 0.00 0.00 99 1003.0
20260506204423 17 235 0.0 4.8 0.00 0.00 0.00 99 1003.0
20260506203423 17 228 1.6 8.0 0.00 0.00 0.00 99 1003.1
20260506202923 17 235 1.6 8.0 0.00 0.00 0.00 99 1003.2
20260506202423 17 240 0.0 4.8 0.00 0.00 0.00 99 1003.2
20260506201923 17 183 0.0 4.8 0.00 0.00 0.00 99 1003.0
20260506201423 17 222 0.0 0.0 0.00 0.00 0.00 99 1003.1
20260506200923 17 210 0.0 0.0 0.00 0.00 0.00 99 1003.1
20260506200423 17 213 0.0 0.0 0.00 0.00 0.00 99 1003.2
20260506195923 17 215 0.0 0.0 0.00 0.00 0.00 99 1003.2
20260506195423 17 185 0.0 0.0 0.00 0.00 0.00 99 1003.2
20260506194923 17 235 0.0 1.6 0.00 0.00 0.00 99 1004.0
20260506194423 17 231 0.0 4.8 0.00 0.00 0.00 99 1004.0
20260506193923 17 230 1.6 4.8 0.00 0.00 0.00 99 1004.0
20260506193423 17 230 1.6 4.8 0.00 0.00 0.00 99 1003.2
20260506192923 17 237 1.6 3.2 0.00 0.00 0.00 99 1003.2
20260506192423 17 205 1.6 3.2 0.00 0.00 0.00 99 1004.0
20260506191923 17 233 1.6 3.2 0.00 0.00 0.00 99 1003.2
20260506191423 17 236 0.0 3.2 0.00 0.00 0.00 99 1004.0
20260506190923 17 222 0.0 3.2 0.00 0.00 0.00 99 1004.0
20260506190423 17 226 0.0 9.7 0.00 0.00 0.00 99 1004.0
20260506185923 17 183 3.2 9.7 0.00 0.00 0.00 99 1003.2
20260506185423 -17 181 1.6 4.8 0.00 0.00 0.00 99 1004.0
20260506184923 -17 225 1.6 4.8 0.00 0.00 0.00 99 1004.0
20260506184423 -17 211 0.0 4.8 0.00 0.00 0.00 99 1004.0
20260506183923 -17 230 1.6 4.8 0.00 0.00 0.00 99 1004.0
20260506183423 -17 214 1.6 6.4 0.00 0.00 0.00 99 1004.0
20260506182923 -17 226 3.2 6.4 0.00 0.00 0.00 99 1004.0
20260506182423 -17 231 3.2 6.4 0.00 0.00 0.00 99 1004.0
20260506181923 -17 240 1.6 8.0 0.00 0.00 0.00 99 1004.0
20260506181423 -17 207 3.2 8.0 0.00 0.00 0.00 99 1004.0
20260506180923 17 226 1.6 6.4 0.00 0.00 0.00 99 1004.0
20260506180423 -17 221 1.6 6.4 0.00 0.00 0.00 99 1004.0
20260506175923 -17 231 1.6 4.8 0.00 0.00 0.00 99 1004.0
20260506175423 17 179 1.6 4.8 0.00 0.00 0.00 99 1004.0
20260506174923 17 219 3.2 8.0 0.00 0.00 0.00 99 1004.0
20260506174423 17 178 3.2 8.0 0.00 0.00 0.00 99 1004.0
20260506173923 17 267 3.2 8.0 0.00 0.00 0.00 99 1004.0
20260506173423 17 229 3.2 8.0 0.00 0.00 0.00 99 1004.0
20260506172923 17 221 3.2 12.9 0.00 0.00 0.00 99 1004.0
20260506171923 -17 229 3.2 9.7 0.00 0.00 0.00 99 1004.0
20260506171423 -17 234 3.2 9.7 0.00 0.00 0.00 99 1004.0
20260506170923 -17 221 3.2 8.0 0.00 0.00 0.00 99 1004.0
20260506170423 -17 223 1.6 6.4 0.00 0.00 0.00 99 1004.0
20260506165923 -17 224 1.6 6.4 0.00 0.00 0.00 99 1004.0
20260506165423 -17 228 0.0 0.0 0.00 0.00 0.00 99 1004.0
20260506164923 -17 217 0.0 0.0 0.00 0.00 0.00 99 1004.0
20260506164423 -17 221 0.0 0.0 0.00 0.00 0.00 99 1004.0
20260506163923 -17 226 0.0 0.0 0.00 0.00 0.00 99 1004.0
20260506163423 -17 224 0.0 0.0 0.00 0.00 0.00 99 1004.0
20260506162923 -17 226 0.0 0.0 0.00 0.00 0.00 99 1004.1
20260506162423 -17 204 0.0 0.0 0.00 0.00 0.00 99 1005.0
20260506161923 -17 182 0.0 0.0 0.00 0.00 0.00 99 1005.0
20260506161423 -17 175 0.0 0.0 0.00 0.00 0.00 99 1005.0
20260506160923 -17 190 0.0 0.0 0.00 0.00 0.00 99 1004.2
20260506160423 -17 239 0.0 0.0 0.00 0.00 0.00 99 1004.2
20260506155923 -17 235 0.0 0.0 0.00 0.00 0.00 99 1005.0
20260506155423 15 220 0.0 0.0 0.00 0.00 0.00 99 1004.2
20260506154923 15 232 0.0 0.0 0.00 0.00 0.00 99 1005.0
20260506154423 15 324 0.0 0.0 0.00 0.00 0.00 99 1005.0
20260506153923 15 269 0.0 0.0 0.00 0.00 0.00 99 1005.0
20260506153423 15 265 0.0 0.0 0.00 0.00 0.00 99 1005.0
20260506152923 15 300 0.0 0.0 0.00 0.00 0.00 99 1005.0
20260506152423 15 279 0.0 0.0 0.00 0.00 0.00 99 1004.2
20260506151923 15 261 0.0 0.0 0.00 0.00 0.00 99 1005.0
20260506151422 15 273 0.0 0.0 0.00 0.00 0.00 99 1005.0
20260506150922 15 94 0.0 0.0 0.00 0.00 0.00 99 1005.0
20260506150422 14 60 0.0 0.0 0.00 0.00 0.00 99 1005.0
20260506145922 14 74 0.0 0.0 0.00 0.00 0.00 99 1005.0
20260506145422 14 160 0.0 0.0 0.00 0.00 0.00 99 1005.0
20260506144422 14 157 0.0 0.0 0.00 0.00 0.00 99 1005.0
20260506143922 14 41 0.0 0.0 0.00 0.00 0.00 99 1005.0
20260506143423 13 284 0.0 0.0 0.00 0.00 0.00 99 1005.0
20260506142922 13 334 0.0 0.0 0.00 0.00 0.00 99 1005.0
20260506142422 13 148 0.0 0.0 0.00 0.00 0.00 99 1005.0
20260506141922 13 94 0.0 0.0 0.00 0.00 0.00 99 1005.0
20260506141422 14 148 0.0 0.0 0.00 0.00 0.00 99 1005.0
20260506140922 14 131 0.0 0.0 0.00 0.00 0.00 99 1005.0
20260506140422 14 345 0.0 0.0 0.00 0.00 0.00 99 1005.2
20260506135922 14 340 0.0 0.0 0.00 0.00 0.00 99 1005.1
20260506135422 15 352 0.0 0.0 0.00 0.00 0.00 99 1005.0
20260506134922 15 245 0.0 0.0 0.00 0.00 0.00 99 1005.0
20260506134422 15 74 0.0 0.0 0.00 0.00 0.00 99 1005.0
20260506133922 16 67 0.0 0.0 0.00 0.00 0.00 99 1005.0
20260506133423 16 149 0.0 0.0 0.00 0.00 0.00 99 1005.0
20260506132922 16 150 0.0 0.0 0.00 0.00 0.00 99 1005.0
20260506132422 16 74 0.0 0.0 0.00 0.00 0.00 99 1005.0
20260506131922 16 91 0.0 0.0 0.00 0.00 0.00 99 1005.0
20260506131422 16 137 0.0 0.0 0.00 0.00 0.00 99 1005.0
20260506130922 16 107 0.0 0.0 0.00 0.00 0.00 99 1005.0
20260506130422 16 130 0.0 0.0 0.00 0.00 0.00 99 1005.0
20260506125922 15 338 0.0 0.0 0.00 0.00 0.00 99 1005.0
20260506125422 15 64 0.0 0.0 0.00 0.00 0.00 99 1005.0
20260506124922 14 254 0.0 0.0 0.00 0.00 0.00 99 1005.0
20260506124422 13 222 0.0 0.0 0.00 0.00 0.00 99 1005.0
20260506123922 13 160 0.0 0.0 0.00 0.00 0.00 99 1005.0
20260506123422 13 232 0.0 0.0 0.00 0.00 0.00 99 1005.0
20260506122922 13 59 0.0 0.0 0.00 0.00 0.00 99 1005.0
20260506122422 13 30 0.0 0.0 0.00 0.00 0.00 99 1005.1
20260506121922 13 349 0.0 0.0 0.00 0.00 0.00 99 1006.0
20260506121422 13 104 0.0 0.0 0.00 0.00 0.00 99 1005.2
20260506120923 12 78 0.0 0.0 0.00 0.00 0.00 99 1005.2
20260506120422 12 76 0.0 0.0 0.00 0.00 0.00 99 1006.0
20260506115922 12 88 0.0 0.0 0.00 0.00 0.00 99 1005.2
20260506115422 12 102 0.0 0.0 0.00 0.00 0.00 99 1006.0
20260506114922 12 94 0.0 0.0 0.00 0.00 0.00 99 1006.0
20260506114422 12 90 0.0 0.0 0.00 0.00 0.00 99 1005.2
20260506113922 12 123 0.0 0.0 0.00 0.00 0.00 99 1005.1
20260506113422 12 129 0.0 0.0 0.00 0.00 0.00 99 1005.1
20260506112922 12 131 0.0 0.0 0.00 0.00 0.00 99 1005.1
20260506112422 12 290 0.0 0.0 0.00 0.00 0.00 99 1005.1
20260506111922 12 288 0.0 0.0 0.00 0.00 0.00 99 1005.0
20260506111422 12 135 0.0 0.0 0.00 0.00 0.00 99 1005.0
20260506110922 12 180 0.0 0.0 0.00 0.00 0.00 99 1005.0
20260506110422 11 175 0.0 0.0 0.00 0.00 0.00 99 1005.0
20260506105422 11 139 0.0 0.0 0.00 0.00 0.00 99 1005.2
20260506104922 11 301 0.0 0.0 0.00 0.00 0.00 99 1005.1
20260506103922 11 123 0.0 0.0 0.00 0.00 0.00 99 1005.0
20260506103422 11 183 0.0 0.0 0.00 0.00 0.00 99 1005.0
20260506102922 11 103 0.0 0.0 0.00 0.00 0.00 99 1005.0
20260506102422 11 133 0.0 0.0 0.00 0.00 0.00 99 1005.0
20260506101922 11 191 0.0 0.0 0.00 0.00 0.00 99 1005.0
20260506101422 11 142 0.0 0.0 0.00 0.00 0.00 99 1005.0
20260506100922 11 171 0.0 0.0 0.00 0.00 0.00 99 1005.0
20260506100422 10 104 0.0 0.0 0.00 0.00 0.00 99 1005.0
20260506095922 10 157 0.0 0.0 0.00 0.00 0.00 99 1005.0
20260506095422 10 135 0.0 0.0 0.00 0.00 0.00 99 1005.0
20260506094922 10 147 0.0 0.0 0.00 0.00 0.00 99 1005.0
20260506094422 10 146 0.0 0.0 0.00 0.00 0.00 99 1005.0
20260506093922 10 211 0.0 0.0 0.00 0.00 0.00 99 1005.0
20260506093422 10 184 0.0 0.0 0.00 0.00 0.00 99 1005.0
20260506092922 10 186 0.0 0.0 0.00 0.00 0.00 99 1005.0
20260506092422 10 180 0.0 0.0 0.00 0.00 0.00 99 1005.0
20260506091922 10 180 0.0 0.0 0.00 0.00 0.00 99 1005.0
20260506091422 10 180 0.0 0.0 0.00 0.00 0.00 99 1005.0
20260506090922 10 180 0.0 0.0 0.00 0.00 0.00 99 1005.0
20260506090422 10 152 0.0 0.0 0.00 0.00 0.00 99 1005.0
20260506085922 10 161 0.0 0.0 0.00 0.00 0.00 99 1005.0
20260506085422 10 125 0.0 0.0 0.00 0.00 0.00 99 1005.0
20260506084922 10 135 0.0 0.0 0.00 0.00 0.00 99 1005.0
20260506084422 10 151 0.0 0.0 0.00 0.00 0.00 99 1005.1
20260506083922 10 180 0.0 0.0 0.00 0.00 0.00 99 1006.0
20260506083422 11 177 0.0 0.0 0.00 0.00 0.00 99 1006.0
20260506082922 11 157 0.0 0.0 0.00 0.00 0.00 99 1006.0
20260506082422 11 157 0.0 0.0 0.00 0.00 0.00 99 1006.0
20260506081922 11 178 0.0 0.0 0.00 0.00 0.00 99 1006.0
20260506081422 11 180 0.0 0.0 0.00 0.00 0.00 99 1006.0
20260506080922 11 164 0.0 0.0 0.00 0.00 0.00 99 1006.0
20260506080422 11 135 0.0 0.0 0.00 0.00 0.00 99 1005.2
20260506073422 12 135 0.0 0.0 0.00 0.00 0.00 99 1006.0
20260506072922 12 135 0.0 0.0 0.00 0.00 0.00 99 1006.0
20260506072422 12 135 0.0 0.0 0.00 0.00 0.00 99 1006.0
20260506071922 12 168 0.0 0.0 0.00 0.00 0.00 99 1006.0
20260506071422 12 128 0.0 0.0 0.00 0.00 0.00 99 1006.0
20260506070922 12 147 0.0 0.0 0.00 0.00 0.00 99 1006.0
20260506070422 12 150 0.0 0.0 0.00 0.00 0.00 99 1006.0
20260506062422 12 137 0.0 0.0 0.00 0.00 0.00 99 1006.0
20260506061922 13 172 0.0 0.0 0.00 0.00 0.00 99 1006.0
20260506061422 13 257 0.0 0.0 0.00 0.00 0.00 99 1006.0
20260506060922 13 270 0.0 0.0 0.00 0.00 0.00 99 1006.0
20260506060422 13 270 0.0 0.0 0.00 0.00 0.00 99 1006.0
20260506050922 13 112 0.0 0.0 0.00 0.00 0.00 99 1006.0
20260506050422 13 178 0.0 0.0 0.00 0.00 0.00 99 1006.0
20260506044922 13 140 0.0 0.0 0.00 0.00 0.00 99 1006.0
20260506044422 13 138 0.0 0.0 0.00 0.00 0.00 99 1006.0
20260506043922 13 213 0.0 0.0 0.00 0.00 0.00 99 1006.0
20260506043422 14 137 0.0 0.0 0.00 0.00 0.00 99 1006.0
20260506042922 14 221 0.0 0.0 0.00 0.00 0.00 99 1006.0
20260506042422 14 264 0.0 0.0 0.00 0.00 0.00 99 1006.0
20260506041922 14 269 0.0 0.0 0.00 0.00 0.00 99 1006.0
20260506041422 14 135 0.0 0.0 0.00 0.00 0.00 99 1006.0
20260506040922 14 112 0.0 0.0 0.00 0.00 0.00 99 1006.0
20260506040422 14 166 0.0 0.0 0.00 0.00 0.00 99 1006.0
20260506035922 14 147 0.0 0.0 0.00 0.00 0.00 99 1006.0
20260506035422 14 270 0.0 0.0 0.00 0.00 0.00 99 1006.0
20260506034922 15 140 0.0 0.0 0.00 0.00 0.00 99 1006.0
20260506034422 15 123 0.0 0.0 0.00 0.00 0.00 99 1006.0
20260506033922 15 204 0.0 0.0 0.00 0.00 0.00 99 1006.0
20260506033422 15 158 0.0 0.0 0.00 0.00 0.00 99 1005.2
20260506032922 15 70 0.0 0.0 0.00 0.00 0.00 99 1006.0
20260506032422 15 70 0.0 0.0 0.00 0.00 0.00 99 1005.2
20260506031922 15 126 0.0 0.0 0.00 0.00 0.00 99 1005.2
20260506031422 15 133 0.0 0.0 0.00 0.00 0.00 99 1005.2
20260506030922 15 295 0.0 0.0 0.00 0.00 0.00 99 1006.0
20260506030422 15 180 0.0 0.0 0.00 0.00 0.00 99 1006.0
20260506025922 15 282 0.0 0.0 0.00 0.00 0.00 99 1006.0
20260506025422 15 225 0.0 0.0 0.00 0.00 0.00 99 1006.0
20260506024922 15 281 0.0 0.0 0.00 0.00 0.00 99 1005.2
20260506024422 15 60 0.0 0.0 0.00 0.00 0.00 99 1006.0
20260506023922 15 150 0.0 0.0 0.00 0.00 0.00 99 1006.0
20260506023422 15 152 0.0 0.0 0.00 0.00 0.00 99 1006.0
20260506022922 15 79 0.0 0.0 0.00 0.00 0.00 99 1006.0
20260506022422 15 120 0.0 0.0 0.00 0.00 0.00 99 1006.0
20260506021922 15 127 0.0 0.0 0.00 0.00 0.00 99 1005.1
20260506021422 15 275 0.0 0.0 0.00 0.00 0.00 99 1005.2
20260506020922 15 174 0.0 0.0 0.00 0.00 0.00 99 1005.1
20260506020422 16 142 0.0 0.0 0.00 0.00 0.00 99 1005.1
20260506015921 16 117 0.0 0.0 0.00 0.00 0.00 99 1005.0
20260506015422 16 168 0.0 0.0 0.00 0.00 0.00 99 1005.1
20260506014921 16 170 0.0 0.0 0.00 0.00 0.00 99 1005.2
20260506014421 17 30 0.0 0.0 0.00 0.00 0.00 99 1005.2
20260506013921 17 186 0.0 0.0 0.00 0.00 0.00 99 1006.0
20260506013422 17 187 0.0 0.0 0.00 0.00 0.00 99 1005.2
20260506012921 17 131 0.0 0.0 0.00 0.00 0.00 99 1005.1
20260506012421 17 172 0.0 0.0 0.00 0.00 0.00 99 1005.1
20260506011922 17 191 0.0 0.0 0.00 0.00 0.00 99 1005.0
20260506011421 17 21 0.0 0.0 0.00 0.00 0.00 99 1005.0
20260506010921 17 319 0.0 0.0 0.00 0.00 0.00 99 1005.0
20260506010421 17 154 0.0 0.0 0.00 0.00 0.00 99 1005.0
20260506005921 17 260 0.0 0.0 0.00 0.00 0.00 99 1005.0
20260506005421 17 228 0.0 0.0 0.00 0.00 0.00 99 1005.0
20260506004921 17 50 0.0 0.0 0.00 0.00 0.00 99 1005.0
20260506004421 18 101 0.0 0.0 0.00 0.00 0.00 99 1005.0
20260506003921 18 136 0.0 0.0 0.00 0.00 0.00 99 1005.0
20260506003422 18 130 0.0 0.0 0.00 0.00 0.00 99 1005.0
20260506002921 18 157 0.0 0.0 0.00 0.00 0.00 99 1005.0
20260506002421 18 84 0.0 0.0 0.00 0.00 0.00 99 1005.0
20260506001921 18 87 0.0 0.0 0.00 0.00 0.00 99 1005.0
20260506001421 18 76 0.0 0.0 0.00 0.00 0.00 99 1005.0
20260506000921 18 95 0.0 0.0 0.00 0.00 0.00 99 1005.0
20260506000423 19 153 0.0 0.0 0.00 0.00 0.00 99 1005.0
20260505235921 19 190 0.0 0.0 0.00 0.00 0.00 99 1005.0
20260505235421 20 165 0.0 0.0 0.00 0.00 0.00 99 1005.0
20260505234921 20 161 0.0 0.0 0.00 0.00 0.00 99 1005.0
20260505234421 20 172 0.0 0.0 0.00 0.00 0.00 99 1005.0
20260505233921 20 92 0.0 0.0 0.00 0.00 0.00 99 1005.0
20260505233422 20 102 0.0 0.0 0.00 0.00 0.00 99 1005.0
20260505232922 20 177 0.0 0.0 0.00 0.00 0.00 99 1005.0
20260505232421 20 78 0.0 0.0 0.00 0.00 0.00 99 1005.0
20260505231921 20 327 0.0 0.0 0.00 0.00 0.00 99 1005.0
20260505231421 20 259 0.0 0.0 0.00 0.00 0.00 99 1005.0
20260505230921 20 136 0.0 0.0 0.00 0.00 0.00 99 1005.0
20260505230421 20 135 0.0 0.0 0.00 0.00 0.00 99 1005.0
20260505225921 20 161 0.0 0.0 0.00 0.00 0.00 99 1004.2
20260505225421 20 134 0.0 0.0 0.00 0.00 0.00 99 1004.2
20260505224921 20 83 0.0 0.0 0.00 0.00 0.00 99 1004.2
20260505224421 20 77 0.0 0.0 0.00 0.00 0.00 99 1004.1
20260505223921 20 96 0.0 0.0 0.00 0.00 0.00 99 1004.1
20260505223421 20 90 0.0 0.0 0.00 0.00 0.00 99 1004.1
20260505222921 20 182 0.0 0.0 0.00 0.00 0.00 99 1004.1
20260505222421 20 90 0.0 0.0 0.00 0.00 0.00 99 1005.0
20260505221921 21 49 0.0 1.6 0.00 0.00 0.00 99 1005.0
20260505221421 21 75 0.0 11.3 0.00 0.00 0.00 99 1005.0
20260505220921 23 73 1.6 12.9 0.00 0.00 0.00 99 1004.2
20260505220421 24 44 0.0 14.5 0.00 0.00 0.00 99 1004.1
20260505215921 25 22 1.6 14.5 0.00 0.00 0.00 99 1004.0
20260505215421 26 3 0.0 8.0 0.00 0.00 0.00 99 1004.0
20260505214921 26 303 0.0 3.2 0.00 0.00 0.00 99 1004.0
20260505214421 26 5 0.0 3.2 0.00 0.00 0.00 99 1004.0